Flag for Italy Weather past 2 weeks in Cagliari, Italy

48 °F

Passing clouds.

Feels Like: 43 °F
Forecast: 47 / 56 °F
Wind: 12 mph from Northwest

Location: Cagliari / Elmas

Current Time: Nov 25, 2015 at 9:19:15 AM

Latest Report: Nov 25, 2015 at 8:50 AM

Visibility: N/A

Pressure: 29.98 "Hg

Humidity: 82%

Dew point: 43 °F

Location of CagliariLocation

Historic Weather in Cagliari — Graph


Cagliari temperature yesterday

Maximum temperature yesterday: 59 °F (at 2:20 PM)
Minimum temperature yesterday: 45 °F (at 5:50 AM)
Average temperature yesterday: 51 °F

Past Weeks' High & Low Weather Summary

High72 °F (Nov 10, 1:50 PM)100% (Nov 10, 8:20 PM)30.39 "Hg (Nov 10, 8:20 PM)
Low43 °F (Nov 25, 3:20 AM)34% (Nov 22, 12:20 PM)29.47 "Hg (Nov 21, 1:50 PM)
Average60 °F79%30.13 "Hg
* Reported Nov 10 7:20 AM — Nov 25 7:20 AM, Cagliari, Weather by CustomWeather, © 2015

Note: Actual official high and low records may vary slightly from our data, if they occured in-between our weather recording intervals... More about our weather records


Cagliari weather history for previous 24 hours

Time TempWeatherWind HumidityBarometerVisibility
7:20 AM
Wed, Nov 25
43 °FPassing clouds.5 mph87%29.98 "HgN/A
6:50 AM43 °FPassing clouds.6 mph87%29.98 "HgN/A
6:20 AM43 °FClear.5 mph93%29.98 "Hg10 mi
5:50 AM43 °FClear.3 mph87%29.98 "Hg10 mi
4:50 AM45 °FPassing clouds.3 mph87%29.98 "HgN/A
4:20 AM43 °FClear.8 mph93%29.95 "Hg10 mi
3:50 AM45 °FClear.9 mph87%29.98 "Hg10 mi
3:20 AM43 °FClear.9 mph93%29.98 "Hg10 mi
2:50 AM45 °FClear.7 mph87%29.98 "Hg10 mi
2:20 AM46 °FClear.6 mph87%29.98 "Hg10 mi
1:50 AM46 °FClear.8 mph87%29.98 "Hg10 mi
1:20 AM48 °FClear.9 mph82%29.98 "Hg10 mi
12:50 AM48 °FClear.6 mph82%30.01 "Hg10 mi
12:20 AM48 °FClear.7 mph82%30.01 "Hg10 mi
11:50 PM
Tue, Nov 24
48 °FClear.5 mph82%30.04 "Hg10 mi
11:20 PM48 °FClear.8 mph82%30.04 "Hg10 mi
10:50 PM48 °FClear.7 mph82%30.04 "Hg10 mi
10:20 PM50 °FPassing clouds.7 mph76%30.04 "HgN/A
9:50 PM52 °FPassing clouds.9 mph77%30.04 "HgN/A
9:20 PM52 °FPassing clouds.8 mph77%30.04 "HgN/A
8:50 PM52 °FPassing clouds.8 mph77%30.04 "HgN/A
8:20 PM52 °FPassing clouds.9 mph77%30.04 "HgN/A
7:50 PM52 °FPassing clouds.8 mph77%30.04 "HgN/A
7:20 PM54 °FPassing clouds.6 mph72%30.04 "HgN/A
6:50 PM54 °FPassing clouds.5 mph72%30.04 "HgN/A
6:20 PM54 °FPassing clouds.6 mph72%30.04 "HgN/A
5:50 PM54 °FPassing clouds.5 mph67%30.04 "HgN/A
5:20 PM55 °FPassing clouds.6 mph63%30.01 "HgN/A
4:50 PM55 °FPassing clouds.8 mph63%30.04 "HgN/A
4:20 PM57 °FPassing clouds.8 mph63%30.04 "HgN/A
3:50 PM57 °FPassing clouds.9 mph63%30.04 "HgN/A
3:20 PM59 °FPassing clouds.10 mph59%30.04 "HgN/A
2:50 PM59 °FPassing clouds.12 mph59%30.04 "HgN/A
2:20 PM59 °FPassing clouds.9 mph59%30.04 "HgN/A
1:50 PM57 °FPassing clouds.10 mph67%30.04 "HgN/A
1:20 PM57 °FSunny.10 mph67%30.04 "Hg10 mi
12:50 PM55 °FSunny.10 mph72%30.04 "Hg10 mi
12:20 PM55 °FSunny.8 mph72%30.07 "Hg10 mi
11:50 AM54 °FSunny.10 mph77%30.07 "Hg10 mi
11:20 AM54 °FPassing clouds.9 mph77%30.09 "HgN/A
10:50 AM52 °FSunny.10 mph77%30.09 "Hg10 mi
10:20 AM50 °FSunny.9 mph82%30.09 "Hg10 mi
9:50 AM50 °FSunny.8 mph76%30.09 "Hg10 mi
9:20 AM46 °FSunny.8 mph87%30.09 "Hg10 mi
Weather by CustomWeather, © 2015

See weather overviewHow to use our weather pages